Wind_Speed
16 13 12 11 12 13 11 11 11 11 11 12 12 11 13 12 13 14 15 15 15 15 16 16 17 17 17 17 16 17 16 17 18 19 20 19 17 15 14 10 14 16 15
18 13 14 12 12 14 12 11 10 11 11 11 11 12 11 12 12 15 16 16 16 17 16 16 17 16 16 16 15 15 14 15 16 17 20 18 16 16 15 15 15 15 13
18 15 15 14 14 14 13 12 11 11 11 11 13 12 11 13 13 15 16 16 17 16 16 16 16 16 15 15 13 14 15 15 13 16 19 14 13 13 13 14 14 12 12
18 16 15 15 15 14 14 12 12 13 13 12 12 12 12 13 13 16 16 15 16 16 16 16 16 16 14 13 13 14 12 10 8 6 6 14 13 14 15 14 12 11 10
19 17 15 15 15 15 16 13 14 14 14 12 12 11 13 14 14 16 15 15 15 16 16 15 16 14 12 11 13 12 9 8 7 6 15 14 12 12 12 10 10 10 9
21 17 16 15 15 14 14 13 12 11 11 10 11 11 12 13 15 15 15 16 16 15 14 13 11 10 10 12 13 9 7 6 10 17 18 14 12 11 10 10 10 10 9
18 16 15 16 14 14 15 13 12 11 11 11 11 12 13 13 13 14 15 15 15 14 11 10 9 10 10 11 9 8 7 10 12 17 13 12 13 12 11 10 10 9 8
19 19 17 18 17 16 15 13 13 14 13 12 12 13 12 13 14 14 14 14 13 12 10 10 10 11 11 10 10 10 9 11 15 15 13 12 12 10 9 9 9 7 7
19 21 19 18 17 16 16 17 17 15 16 17 15 14 14 16 14 13 14 13 12 10 10 10 10 10 11 10 12 10 10 11 11 11 12 9 10 8 8 8 6 7 6
24 25 19 20 19 17 14 15 17 16 17 19 20 16 15 14 14 13 14 12 10 10 9 9 9 9 9 11 16 15 12 7 8 10 7 8 7 7 6 7 6 6 6
29 26 22 20 20 16 16 17 17 18 16 17 15 15 12 13 12 12 11 11 10 10 9 9 9 9 11 14 12 9 6 2 9 11 5 3 5 6 5 6 7 8 6
32 17 19 20 20 18 16 20 20 12 13 16 15 15 14 10 13 12 12 13 11 10 9 9 8 7 7 5 7 7 6 12 9 7 7 8 8 8 6 6 6 5 5
32 28 22 24 16 13 18 19 18 15 15 16 10 11 13 16 17 12 13 12 12 12 10 10 8 8 9 10 13 13 13 18 15 10 7 8 7 4 2 4 5 5 5
20 27 26 15 22 21 11 19 20 19 18 16 11 7 18 18 18 15 15 12 12 11 11 8 7 3 5 0 3 5 12 11 12 7 10 9 6 4 6 5 4 4 4
26 21 16 19 31 27 25 23 27 24 21 15 12 14 17 15 18 16 16 17 14 14 11 5 7 6 4 3 4 6 8 8 8 7 2 5 7 7 5 4 5 5 5
24 26 22 16 31 32 28 28 21 25 20 20 16 13 13 14 11 13 14 13 14 12 10 7 4 8 9 4 3 3 6 5 5 7 3 1 4 7 7 6 5 7 6
20 32 23 22 17 22 21 23 16 19 21 18 14 9 5 16 16 2 17 14 9 7 10 5 8 5 6 11 6 4 2 2 6 2 6 6 3 4 6 6 6 8 7
21 24 18 21 20 13 15 17 14 13 20 19 14 7 10 14 10 29 11 6 11 12 11 10 8 14 8 12 8 8 4 5 3 5 4 4 6 1 4 6 6 8 7
22 22 16 25 21 16 13 9 9 16 13 19 19 16 8 4 13 2 9 8 2 5 4 2 7 7 4 6 10 8 3 3 6 2 1 2 4 2 7 8 4 6 7
23 19 18 21 24 17 13 9 4 9 7 11 17 15 17 8 4 25 19 9 5 9 14 9 4 10 5 7 6 8 6 4 5 6 4 5 5 5 7 4 4 5 5
23 21 19 17 23 19 16 12 9 8 8 10 17 21 12 7 3 4 4 5 2 9 3 3 7 7 4 7 6 8 11 7 17 22 28 1 5 5 5 2 7 3 5
24 23 22 20 24 21 20 18 17 13 14 10 16 14 12 6 5 4 1 2 3 5 3 4 3 8 10 6 4 15 4 14 31 21 30 11 2 5 5 6 8 5 0
26 27 26 23 23 23 19 16 17 13 8 14 16 14 11 9 8 7 3 3 4 3 5 5 4 7 9 4 7 3 4 2 7 23 25 18 16 25 3 5 9 6 4
34 24 27 26 23 23 19 18 15 12 11 13 20 14 16 14 9 9 6 3 4 6 3 6 7 3 6 12 23 14 1 20 5 4 18 4 19 25 34 11 12 8 6
31 36 27 26 24 21 23 16 19 17 15 7 14 13 21 15 10 8 8 6 3 4 8 8 5 8 8 7 15 19 11 18 8 12 2 6 9 12 19 37 4 14 9
17 12 19 26 27 23 24 20 19 21 17 12 14 21 18 17 14 13 13 11 7 5 5 6 6 8 11 15 11 14 8 9 4 6 6 11 19 13 6 8 16 11 11
Wind_Direction
120 116 109 104 110 112 103 101 99 95 88 87 94 100 100 104 108 123 118 115 113 111 109 110 103 98 96 94 92 93 92 91 92 94 93 85 78 78 77 92 84 87 90
123 116 114 108 105 110 108 105 103 99 94 91 95 95 102 104 108 120 113 118 117 116 110 104 103 97 96 98 96 101 99 96 93 100 91 88 80 76 78 84 89 87 89
128 118 116 113 116 113 111 112 108 100 97 95 100 99 104 109 110 110 109 113 116 115 106 102 100 97 97 98 101 105 110 105 104 105 84 79 79 77 76 80 84 90 94
135 128 120 119 118 119 115 117 116 109 101 99 100 104 111 108 110 107 106 109 109 108 101 101 98 98 97 104 107 115 118 122 125 128 81 87 83 79 76 77 76 85 84
129 133 127 121 119 119 114 111 111 107 100 99 106 106 108 110 108 103 106 107 106 104 101 101 98 90 93 102 112 119 114 105 66 82 100 98 94 83 87 81 79 86 108
129 127 126 121 117 115 113 112 112 108 109 111 112 113 107 107 105 108 113 109 108 107 102 103 100 93 91 104 119 116 91 52 48 109 110 105 106 97 91 93 91 85 82
130 125 122 121 115 115 114 108 114 115 115 118 116 114 112 111 111 111 112 109 111 106 104 103 102 99 99 113 123 109 77 72 98 102 102 99 101 99 94 88 80 77 74
121 121 121 122 111 110 117 113 106 114 114 117 119 119 118 115 116 117 112 113 109 109 105 101 103 110 108 116 132 108 78 64 110 107 106 106 99 95 92 84 73 69 59
114 123 123 125 124 124 121 115 113 111 114 115 116 118 123 122 120 119 119 117 116 111 103 104 112 110 110 121 127 115 95 92 82 110 105 103 101 93 82 71 64 53 50
123 127 124 130 132 131 129 117 107 113 123 126 120 122 125 128 129 130 130 127 126 120 116 113 115 115 120 123 126 124 125 120 119 92 98 105 105 97 73 60 50 38 39
124 125 144 143 132 120 130 120 109 112 106 130 121 129 143 131 128 132 147 138 142 134 127 127 133 131 132 140 134 138 148 80 88 89 87 95 102 90 79 68 55 38 36
139 146 151 138 129 118 117 130 130 122 125 125 139 154 150 158 157 154 161 151 152 139 139 149 164 173 164 187 162 158 142 128 114 112 84 91 95 88 76 70 58 57 51
148 134 155 145 127 117 128 130 137 147 164 174 196 188 201 149 159 165 159 157 156 155 158 163 187 222 219 204 260 218 167 148 124 126 102 84 79 60 19 47 40 44 55
133 135 144 132 146 132 139 155 157 176 168 173 185 187 177 163 171 171 158 162 181 186 197 233 212 207 261 216 144 230 121 126 141 150 84 71 65 67 64 56 51 51 56
130 133 137 142 155 139 159 159 168 181 177 161 172 181 187 196 189 188 197 192 198 190 185 181 143 178 238 319 41 38 58 42 21 150 116 76 70 67 64 62 61 66 67
145 144 138 130 150 152 166 163 177 181 190 179 178 206 222 161 162 157 182 196 172 206 190 146 156 189 213 154 122 350 73 110 49 6 290 182 91 72 77 77 86 79 78
147 141 145 141 150 160 184 174 184 197 173 174 166 205 187 166 211 304 201 191 161 118 114 154 192 212 122 128 154 177 179 145 122 304 345 8 97 97 81 88 104 89 88
152 135 151 158 148 162 182 189 211 198 164 147 154 154 157 120 98 182 231 192 141 163 168 180 225 242 184 165 163 206 175 209 197 237 58 10 66 215 98 88 102 94 88
147 140 171 142 150 169 186 203 127 196 185 161 154 160 146 270 205 352 83 106 244 282 194 124 315 316 248 263 176 190 209 280 312 120 294 323 103 174 113 94 93 94 88
145 152 172 153 152 165 173 191 200 182 155 152 169 150 166 201 212 108 136 221 276 148 77 76 282 323 308 294 4 211 181 197 232 272 292 330 63 195 109 84 109 112 90
155 163 164 170 152 156 171 192 171 209 194 193 142 156 163 178 227 301 146 184 304 47 139 115 226 315 269 309 311 288 223 222 32 10 345 353 74 117 116 152 160 151 124
160 169 168 174 165 170 180 192 186 204 193 205 158 151 163 179 206 262 263 137 251 46 123 200 302 272 276 204 246 301 32 3 341 350 327 332 116 91 108 125 128 129 144
170 176 172 174 177 182 187 195 193 219 216 201 155 160 171 186 208 236 257 306 6 296 323 260 285 337 333 307 318 288 96 211 55 309 320 349 8 8 219 175 166 141 144
177 184 177 172 182 190 195 189 184 204 203 198 195 185 187 190 206 210 215 266 316 281 16 267 298 333 327 22 304 306 174 147 190 209 242 34 44 347 323 301 184 149 156
170 177 180 171 184 193 203 198 184 205 224 228 187 202 182 183 205 214 193 202 223 274 315 276 294 310 284 233 196 284 24 283 158 73 334 53 317 358 300 324 163 177 151
134 184 159 175 184 193 200 202 194 200 218 213 220 176 172 182 199 203 205 199 206 227 255 272 276 275 290 298 312 326 312 352 105 128 232 148 192 194 299 320 311 197 163
Height
801 803 805 806 808 809 811 812 813 815 817 819 819 820 821 823 822 823 825 827 827 828 830 830 831 830 830 830 831 830 830 831 832 832 834 835 835 835 837 838 838 838 839
800 803 805 808 809 810 812 814 815 817 819 820 821 822 824 824 824 825 826 827 827 829 831 832 832 832 833 833 833 832 833 833 833 834 835 837 839 838 839 837 838 839 842
801 804 807 809 810 811 813 815 816 817 820 821 823 824 825 826 826 826 827 830 830 831 832 833 834 834 835 835 834 834 835 835 836 837 838 838 839 839 839 840 840 842 843
802 805 807 809 811 813 815 816 817 818 820 822 825 826 827 828 829 829 830 831 833 833 834 836 837 837 837 837 836 836 838 838 839 840 841 840 841 841 841 842 843 844 844
803 805 808 810 813 816 817 819 819 819 821 823 826 828 828 830 831 831 832 834 835 836 837 838 839 839 840 839 838 838 839 840 841 841 842 843 844 844 844 845 846 846 846
806 808 811 814 817 818 820 821 821 821 823 826 828 830 831 832 833 833 835 835 837 838 839 840 841 841 841 840 840 840 840 840 840 843 842 844 844 845 846 847 847 847 847
807 810 814 816 818 821 823 824 825 825 827 829 831 832 833 834 835 836 837 837 839 840 842 842 842 842 842 842 842 841 842 841 842 843 844 845 846 847 848 849 849 848 849
807 812 817 819 821 824 825 827 828 829 830 831 832 833 835 836 836 838 838 840 841 843 843 843 843 842 842 843 843 843 842 842 844 844 846 847 849 849 850 850 850 850 850
810 815 819 821 822 824 826 828 829 830 831 832 832 834 835 836 836 839 840 842 843 844 844 845 844 844 843 844 844 845 844 844 845 846 848 849 850 850 850 850 851 850 850
812 817 821 822 823 825 827 830 832 834 833 833 832 835 836 836 837 839 841 842 844 845 845 845 845 844 843 843 843 843 844 845 846 847 849 850 850 850 851 851 851 850 850
815 818 820 822 823 825 828 832 836 838 839 837 835 835 838 839 840 842 843 843 845 844 845 845 844 843 842 842 841 842 843 845 848 848 849 850 850 850 850 850 850 851 850
813 817 822 826 827 827 829 834 837 841 843 841 837 836 839 840 841 843 844 844 845 844 844 844 844 843 845 848 845 841 839 843 847 849 849 849 849 849 849 849 850 850 850
810 816 821 827 828 832 832 834 838 840 841 840 838 839 839 842 845 845 845 845 845 844 842 842 842 840 845 840 839 833 827 833 841 846 847 848 848 848 848 848 848 849 849
808 814 819 822 829 833 827 833 837 838 837 837 839 842 844 845 846 848 848 846 845 845 842 841 842 840 838 845 826 833 824 830 840 843 845 845 846 846 847 847 847 848 848
807 812 819 821 831 836 830 831 830 834 837 841 842 842 843 845 847 848 846 847 845 845 845 841 840 839 836 836 838 834 836 840 844 846 844 845 845 845 846 846 846 847 848
805 813 818 822 825 829 832 831 828 831 837 841 843 840 843 842 840 843 843 842 843 842 843 842 840 839 838 839 840 841 843 845 847 847 847 846 846 846 846 845 846 847 847
804 810 817 821 826 826 824 829 823 826 835 839 842 837 829 831 835 839 840 842 844 841 840 842 841 840 841 843 845 846 845 846 847 847 846 846 846 847 847 846 847 846 847
804 809 814 818 824 827 825 826 828 829 834 838 839 836 830 831 831 837 842 836 844 844 842 844 844 842 842 843 845 846 847 847 846 846 847 846 846 845 846 847 847 847 847
805 808 814 817 821 825 825 827 829 825 835 835 835 834 834 830 834 832 834 835 849 847 846 843 843 844 844 843 844 846 848 848 847 847 847 846 846 844 845 846 847 848 848
803 809 814 816 819 824 825 825 827 829 831 833 836 835 839 841 842 849 840 840 850 849 848 839 845 846 845 845 845 845 845 847 848 847 846 846 846 844 844 846 847 848 849
800 807 812 815 818 822 826 827 827 826 830 833 834 837 839 842 846 844 839 844 851 849 845 845 849 849 846 844 845 843 842 846 848 847 850 848 848 848 847 845 846 849 848
796 803 808 813 817 820 824 826 827 827 829 832 835 838 840 842 846 847 848 851 848 845 842 846 850 846 844 843 842 843 846 849 849 847 849 849 849 849 849 849 847 847 848
793 795 802 808 814 818 821 824 826 827 829 829 832 835 838 841 843 844 844 844 840 838 841 845 843 843 842 841 840 843 856 871 868 857 850 853 851 853 850 849 848 847 845
784 792 799 802 811 816 818 820 823 825 827 827 829 830 832 834 836 837 838 838 838 838 843 843 841 841 843 847 845 842 844 846 862 864 859 857 850 858 853 849 846 848 846
777 778 796 798 808 813 814 816 820 824 824 826 827 828 829 831 833 833 835 838 839 839 841 840 842 842 842 852 853 849 844 845 843 846 852 852 855 861 856 851 846 845 843
777 783 785 797 805 809 811 813 818 821 822 824 825 825 828 829 831 832 833 836 838 839 842 842 843 844 842 840 842 842 844 842 844 841 845 852 856 853 857 851 846 844 841